Location: Newark
(35.6799°N, 139.7636°E)
Time: 03:34:50
(UTC+00:00)

Tiros 1 despin weight - Visible Passes

Search period start: 11 December 2019 00:00
Search period end: 21 December 2019 00:00
Orbit: 594 x 642 km, 48.2° (Epoch: 10 December)

Date Brightness Start Highest point End Pass type
(mag) Time Alt. Az. Time Alt. Az. Time Alt. Az.
11 Dec ? 19:43:15 34° N 19:43:15 34° N 19:46:28 10° NE visible
12 Dec ? 19:59:26 25° NNW 19:59:26 25° NNW 20:02:51 10° NE visible
13 Dec ? 20:15:31 19° NNW 20:16:03 19° NNW 20:19:18 10° NE visible
14 Dec ? 18:54:27 11° NE 18:54:27 11° NE 18:54:34 10° NE visible
14 Dec ? 20:31:31 14° NNW 20:33:07 17° N 20:36:00 10° NE visible
15 Dec ? 19:10:23 13° NNE 19:10:23 13° NNE 19:10:58 10° NE visible
15 Dec ? 20:47:27 10° NW 20:50:12 16° N 20:53:05 10° NE visible
16 Dec ? 19:26:18 14° NNE 19:26:18 14° NNE 19:27:31 10° NE visible
16 Dec ? 21:04:03 10° NW 21:07:17 19° NNE 21:10:28 10° ENE visible
17 Dec ? 19:42:11 16° N 19:42:11 16° N 19:44:22 10° NE visible
18 Dec ? 19:58:03 17° N 19:58:35 17° N 20:01:36 10° NE visible
19 Dec ? 20:13:55 17° NNW 20:15:38 21° NNE 20:19:03 10° ENE visible
20 Dec ? 18:52:45 10° NE 18:52:45 10° NE 18:52:47 10° NE visible
20 Dec ? 20:29:49 16° NNW 20:32:33 29° NNE 20:36:27 10° E visible
